Regional Weather Roundup
Issued by NWS Portland, ME

Current Version | Previous Version | Text Only | Print | Product List | Glossary On
Versions: 1 2 3 4 5 6 7 8 9 10 11 12 13 14 15 16 17 18 19 20 21 22 23 24 25 26 27 28 29 30 31 32 33 34 35 36 37 38 39 40 41 42 43 44 45 46 47 48 49 50
415 ASUS41 KGYX 202310 RWRGYX WEATHER ROUNDUP FOR MAINE AND NEW HAMPSHIRE NATIONAL WEATHER SERVICE GRAY ME 700 PM EDT MON MAY 20 2019 MEZ002-005-006-010-012-015-018-020-021-024-026-027-029-210000- MAINE CITY SKY/WX TMP DP RH WIND PRES REMARKS PORTLAND MOCLDY 70 62 76 S5 29.60F SANFORD PTSUNNY 72 63 73 CALM 29.62S BAR HARBOR CLOUDY 55 54 96 SE3 29.62S FOG WISCASSET CLOUDY 63 61 93 CALM 29.60F ROCKLAND CLOUDY 60 59 96 S8 29.59F FOG FRYEBURG FAIR 70 61 73 SW7 29.61S LEWISTONAUBURN MOCLDY 69 62 78 SW5 29.59F AUGUSTA CLOUDY 70 63 78 VRB6 29.61R WATERVILLE FAIR 71 61 70 N5 29.58R BANGOR TSTM 64 61 90 VRB5 29.62R FOG GREENVILLE N/A 62 60 93 SE7 29.58F MILLINOCKET CLOUDY 60 58 92 E5 29.61F HOULTON CLOUDY 54 53 97 VRB5 29.62R PRESQUE ISLE MOCLDY 54 52 93 CALM 29.64S FRENCHVILLE FOG 51 48 89 E12 29.61F VSB 1/2 CARIBOU LGT RAIN 54 51 90 SE7 29.62F $$ NHZ002-005-008-009-011-012-014-210000- NEW HAMPSHIRE CITY SKY/WX TMP DP RH WIND PRES REMARKS PORTSMOUTH PTSUNNY 76 60 57 NW9 29.61R ROCHESTER CLOUDY 73 60 63 CALM 29.61S NASHUA PTSUNNY 80 58 46 W6G14 29.63R MANCHESTER PTSUNNY 82 56 40 W7 29.61R CONCORD LGT RAIN 71 63 75 CALM 29.64R LACONIA FAIR 72 63 73 NW5 29.64R PLYMOUTH FAIR 70 63 78 CALM 29.63S BERLIN CLOUDY 68 61 78 S5 29.63R WHITEFIELD HAZE 67 62 84 VRB3 29.64S VSB 1/4 JAFFREY PTSUNNY 77 54 44 VRB6 29.67R KEENE PTSUNNY 77 59 53 CALM 29.65R LEBANON PTSUNNY 71 65 81 CALM 29.63S MT WASHINGTON FOG 46 46 100 W46G52 N/A VSB 1/16 $$ VTZ005-007-008-210000- VERMONT CITY SKY/WX TMP DP RH WIND PRES REMARKS ST JOHNSBURY N/A 71 53 52 MISG 29.63R MONTPELIER CLOUDY 69 52 54 NW14 29.70R BURLINGTON PTSUNNY 69 48 47 W21G31 29.68R $$ MAZ007-012-024-CTZ003-RIZ002-NYZ038-NYZ072-210000- SOUTHERN NEW ENGLAND AND NY CITY SKY/WX TMP DP RH WIND PRES REMARKS BOSTON MOCLDY 73 65 75 S13 29.65R WORCESTER FAIR 71 63 75 SW6 29.68S NANTUCKET FOG 56 56 100 SW10 29.74S VSB 1/4 PROVIDENCE PTSUNNY 75 64 68 NW5 29.69F HARTFORD PTSUNNY 79 63 57 SW15 29.65F ALBANY PTSUNNY 72 56 57 NW18G28 29.71R NEW YORK CITY PTSUNNY 82 60 47 NW17 29.68S $$ ANZ081-ANZ082-ANZ150-NHZ014-MEZ023>029-210000- COASTAL MARINE OBSERVATIONS STATION/POSITION TIME TEMP WIND PRES WAVE AIR SEA DIR/SP/G HT/PER (UTC) (F) (DEG/KT/KT) (MB) (FT/S) ISLE OF SHOALS 2200 72 160/ 15/ 17 1001.9F JEFFREYS LEDGE 2238 50 N/A 3/ 5 GEORGES BANK BUO 2250 53 45 200/ 16/ 19 1010.4F 5/ 6 $$ .............KEY.............. WCI - WIND CHILL TC - TEMPERATURE IN CELSIUS VSB - VISIBILITY IN MILES HX - HEAT INDEX FAIR- INDICATES FEW OR NO CLOUDS BELOW 12,000 FT, WITH NO SIGNIFICANT WEATHER AND/OR OBSTRUCTIONS TO VISIBILITY.

USA.gov is the U.S. government's official web portal to all federal, state and local government web resources and services.